Location: New Canada
(47.1017°N, 68.5042°W)
Time: 01:03:29
(UTC+00:00)

RS-44 - Pass Details

Date: 17 April 2024
Orbit: 1174 x 1511 km, 82.5° (Epoch: 29 May)

Event Time Altitude Azimuth Distance (km) Brightness Sun altitude
Rises 03:16:16 0° 248° (WSW) 4,642 ? -29.7°
Reaches altitude 10° 03:20:36 10° 266° (W) 3,644 ? -30.0°
Maximum altitude 03:26:02 18° 305° (NW) 3,048 ? -30.3°
Drops below altitude 10° 03:31:22 10° 345° (NNW) 3,541 ? -30.6°
Sets 03:35:33 0° 4° (N) 4,460 ? -30.8°
